| time (UTC) | temp F | wind direction | speed MPH | gust MPH | rain 1hr in | rain 24hr in | rain mn in | humidity % | barometer mb |
| 20260510121532 | 50 | 253 | 0.0 | 4.0 | 0.00 | 0.02 | 0.02 | 89 | 1009.4 |
| 20260510120037 | 50 | 217 | 1.0 | 6.0 | 0.00 | 0.02 | 0.02 | 89 | 1008.9 |
| 20260510114527 | 49 | 202 | 1.0 | 0.0 | 0.00 | 0.00 | 0.02 | 90 | 1009.0 |
| 20260510113025 | 49 | 241 | 2.0 | 4.0 | 0.00 | 0.02 | 0.02 | 89 | 1008.8 |
| 20260510111517 | 48 | 249 | 2.0 | 6.0 | 0.00 | 0.02 | 0.02 | 90 | 1008.5 |
| 20260510110018 | 48 | 202 | 0.0 | 6.0 | 0.00 | 0.02 | 0.02 | 92 | 1008.4 |
| 20260510104515 | 47 | 229 | 0.0 | 7.0 | 0.00 | 0.02 | 0.02 | 92 | 1008.2 |
| 20260510103009 | 47 | 161 | 1.0 | 0.0 | 0.00 | 0.00 | 0.02 | 93 | 1008.0 |
| 20260510101507 | 47 | 175 | 0.0 | 7.0 | 0.00 | 0.02 | 0.02 | 93 | 1007.9 |
| 20260510100007 | 47 | 126 | 0.0 | 4.0 | 0.00 | 0.02 | 0.02 | 93 | 1008.0 |
| 20260510094520 | 47 | 155 | 0.0 | 5.0 | 0.00 | 0.02 | 0.02 | 93 | 1007.6 |
| 20260510093006 | 47 | 175 | 0.0 | 5.0 | 0.00 | 0.02 | 0.02 | 93 | 1007.4 |
| 20260510091506 | 47 | 184 | 0.0 | 5.0 | 0.00 | 0.02 | 0.02 | 93 | 1007.1 |
| 20260510090005 | 48 | 144 | 2.0 | 8.0 | 0.00 | 0.02 | 0.02 | 94 | 1007.0 |
| 20260510084504 | 48 | 175 | 0.0 | 5.0 | 0.01 | 0.02 | 0.02 | 95 | 1007.1 |
| 20260510083002 | 48 | 184 | 0.0 | 3.0 | 0.02 | 0.02 | 0.02 | 96 | 1007.1 |
| 20260510081501 | 48 | 232 | 1.0 | 8.0 | 0.02 | 0.02 | 0.02 | 96 | 1007.3 |
| 20260510080104 | 48 | 188 | 1.0 | 7.0 | 0.02 | 0.02 | 0.02 | 95 | 1007.9 |
| 20260510074603 | 48 | 212 | 0.0 | 7.0 | 0.01 | 0.01 | 0.01 | 95 | 1007.8 |
| 20260510073058 | 48 | 224 | 1.0 | 6.0 | 0.00 | 0.00 | 0.00 | 94 | 1007.7 |
| 20260510071557 | 48 | 202 | 1.0 | 6.0 | 0.00 | 0.00 | 0.00 | 95 | 1007.8 |
| 20260510070057 | 47 | 184 | 0.0 | 9.0 | 0.00 | 0.00 | 0.00 | 97 | 1007.7 |
| 20260510064551 | 46 | 177 | 1.0 | 10.0 | 0.00 | 0.00 | 0.00 | 99 | 1007.7 |
| 20260510063051 | 46 | 157 | 2.0 | 7.0 | 0.00 | 0.00 | 0.00 | 99 | 1007.5 |
| 20260510061548 | 46 | 185 | 1.0 | 8.0 | 0.00 | 0.00 | 0.00 | 99 | 1007.4 |
| 20260510060053 | 45 | 201 | 3.0 | 8.0 | 0.00 | 0.00 | 0.00 | 99 | 1007.8 |
| 20260510054547 | 45 | 179 | 1.0 | 9.0 | 0.00 | 0.00 | 0.00 | 99 | 1007.7 |
| 20260510053043 | 44 | 340 | 1.0 | 8.0 | 0.00 | 0.00 | 0.00 | 99 | 1007.9 |
| 20260510051554 | 44 | 190 | 1.0 | 8.0 | 0.00 | 0.00 | 0.00 | 99 | 1008.0 |
| 20260510050038 | 44 | 326 | 1.0 | 9.0 | 0.00 | 0.00 | 0.00 | 99 | 1008.0 |
| 20260510044538 | 44 | 117 | 1.0 | 7.0 | 0.00 | 0.00 | 0.00 | 99 | 1007.8 |
| 20260510043040 | 43 | 120 | 1.0 | 8.0 | 0.00 | 0.00 | 0.00 | 99 | 1008.1 |
| 20260510041531 | 43 | 178 | 2.0 | 9.0 | 0.00 | 0.00 | 0.00 | 99 | 1007.6 |
| 20260510040028 | 43 | 184 | 2.0 | 9.0 | 0.00 | 0.00 | 0.00 | 99 | 1007.8 |
| 20260510034526 | 43 | 188 | 1.0 | 8.0 | 0.00 | 0.00 | 0.00 | 99 | 1008.0 |
| 20260510033025 | 43 | 161 | 1.0 | 8.0 | 0.00 | 0.00 | 0.00 | 99 | 1008.3 |
| 20260510031535 | 43 | 146 | 1.0 | 7.0 | 0.00 | 0.00 | 0.00 | 99 | 1008.4 |
| 20260510030023 | 43 | 167 | 1.0 | 7.0 | 0.00 | 0.00 | 0.00 | 99 | 1008.2 |
| 20260510024523 | 43 | 140 | 1.0 | 7.0 | 0.00 | 0.00 | 0.00 | 99 | 1008.4 |
| 20260510023037 | 43 | 110 | 0.0 | 10.0 | 0.00 | 0.00 | 0.00 | 98 | 1008.5 |
| 20260510021523 | 43 | 123 | 0.0 | 7.0 | 0.00 | 0.00 | 0.00 | 98 | 1008.4 |
| 20260510020021 | 43 | 181 | 1.0 | 5.0 | 0.00 | 0.00 | 0.00 | 98 | 1008.7 |
| 20260510014521 | 43 | 165 | 1.0 | 9.0 | 0.00 | 0.00 | 0.00 | 98 | 1008.4 |
| 20260510013021 | 43 | 229 | 1.0 | 7.0 | 0.00 | 0.00 | 0.00 | 98 | 1008.6 |
| 20260510011524 | 43 | 169 | 2.0 | 7.0 | 0.00 | 0.00 | 0.00 | 98 | 1008.5 |
| 20260510010024 | 43 | 194 | 1.0 | 9.0 | 0.00 | 0.00 | 0.00 | 98 | 1008.8 |
| 20260510004518 | 43 | 165 | 2.0 | 10.0 | 0.00 | 0.00 | 0.00 | 98 | 1008.7 |
| 20260510003018 | 43 | 157 | 2.0 | 10.0 | 0.00 | 0.00 | 0.00 | 98 | 1008.6 |
| 20260510001516 | 43 | 15 | 1.0 | 7.0 | 0.00 | 0.00 | 0.00 | 98 | 1008.3 |
| 20260510000014 | 43 | 119 | 0.0 | 6.0 | 0.00 | 0.00 | 0.00 | 98 | 1008.3 |
| 20260509234514 | 43 | 338 | 1.0 | 9.0 | 0.00 | 0.00 | 0.00 | 97 | 1008.2 |
| 20260509233014 | 43 | 62 | 1.0 | 9.0 | 0.00 | 0.00 | 0.00 | 97 | 1008.1 |
| 20260509231513 | 43 | 167 | 0.0 | 7.0 | 0.00 | 0.00 | 0.00 | 97 | 1008.2 |
| 20260509230012 | 43 | 65 | 1.0 | 8.0 | 0.00 | 0.00 | 0.00 | 97 | 1008.3 |
| 20260509224511 | 43 | 169 | 1.0 | 8.0 | 0.00 | 0.00 | 0.00 | 97 | 1008.2 |
| 20260509223011 | 43 | 230 | 0.0 | 8.0 | 0.00 | 0.00 | 0.00 | 97 | 1008.2 |
| 20260509221509 | 43 | 20 | 1.0 | 6.0 | 0.00 | 0.00 | 0.00 | 97 | 1008.4 |
| 20260509220009 | 43 | 209 | 1.0 | 7.0 | 0.00 | 0.00 | 0.00 | 97 | 1008.4 |
| 20260509214506 | 43 | 161 | 1.0 | 7.0 | 0.00 | 0.00 | 0.00 | 96 | 1008.5 |
| 20260509213005 | 43 | 148 | 0.0 | 7.0 | 0.00 | 0.00 | 0.00 | 96 | 1008.7 |
| 20260509211504 | 43 | 107 | 2.0 | 7.0 | 0.00 | 0.00 | 0.00 | 96 | 1008.7 |
| 20260509210004 | 43 | 355 | 0.0 | 3.0 | 0.00 | 0.00 | 0.00 | 95 | 1008.6 |
| 20260509204503 | 43 | 24 | 0.0 | 6.0 | 0.00 | 0.00 | 0.00 | 95 | 1008.8 |
| 20260509203002 | 43 | 146 | 1.0 | 8.0 | 0.00 | 0.00 | 0.00 | 95 | 1008.6 |
| 20260509201601 | 43 | 173 | 1.0 | 9.0 | 0.00 | 0.00 | 0.00 | 95 | 1008.8 |
| 20260509194600 | 43 | 186 | 1.0 | 6.0 | 0.00 | 0.00 | 0.00 | 95 | 1009.1 |
| 20260509193056 | 43 | 180 | 2.0 | 7.0 | 0.00 | 0.00 | 0.00 | 94 | 1009.2 |
| 20260509191558 | 43 | 180 | 1.0 | 7.0 | 0.00 | 0.00 | 0.00 | 94 | 1009.3 |
| 20260509190100 | 43 | 238 | 2.0 | 8.0 | 0.00 | 0.00 | 0.00 | 93 | 1009.4 |
| 20260509184551 | 43 | 46 | 1.0 | 6.0 | 0.00 | 0.00 | 0.00 | 93 | 1009.5 |
| 20260509183050 | 43 | 219 | 1.0 | 4.0 | 0.00 | 0.00 | 0.00 | 92 | 1009.7 |
| 20260509181605 | 44 | 327 | 0.0 | 7.0 | 0.00 | 0.00 | 0.00 | 91 | 1009.8 |
| 20260509180048 | 44 | 171 | 0.0 | 6.0 | 0.00 | 0.00 | 0.00 | 90 | 1009.8 |
| 20260509174550 | 45 | 136 | 1.0 | 8.0 | 0.00 | 0.00 | 0.00 | 89 | 1010.0 |
| 20260509173044 | 45 | 178 | 0.0 | 9.0 | 0.00 | 0.00 | 0.00 | 89 | 1010.2 |
| 20260509171542 | 45 | 240 | 1.0 | 6.0 | 0.00 | 0.00 | 0.00 | 89 | 1010.3 |
| 20260509170042 | 44 | 202 | 0.0 | 8.0 | 0.00 | 0.00 | 0.00 | 88 | 1010.4 |
| 20260509164543 | 44 | 189 | 1.0 | 10.0 | 0.00 | 0.00 | 0.00 | 84 | 1010.4 |
| 20260509163050 | 46 | 307 | 2.0 | 8.0 | 0.00 | 0.00 | 0.00 | 79 | 1010.2 |
| 20260509161535 | 47 | 22 | 2.0 | 6.0 | 0.00 | 0.00 | 0.00 | 71 | 1010.7 |
| 20260509160034 | 48 | 178 | 2.0 | 6.0 | 0.00 | 0.00 | 0.00 | 66 | 1010.7 |
| 20260509154533 | 48 | 163 | 0.0 | 7.0 | 0.00 | 0.00 | 0.00 | 60 | 1010.7 |
| 20260509153030 | 49 | 360 | 1.0 | 7.0 | 0.00 | 0.00 | 0.00 | 58 | 1011.0 |
| 20260509151529 | 49 | 32 | 0.0 | 4.0 | 0.00 | 0.00 | 0.00 | 56 | 1011.1 |
| 20260509150028 | 49 | 86 | 0.0 | 9.0 | 0.00 | 0.00 | 0.00 | 54 | 1011.2 |
| 20260509144527 | 49 | 214 | 0.0 | 6.0 | 0.00 | 0.00 | 0.00 | 51 | 1011.2 |
| 20260509143029 | 50 | 137 | 0.0 | 7.0 | 0.00 | 0.00 | 0.00 | 49 | 1011.0 |
| 20260509141530 | 50 | 163 | 0.0 | 7.0 | 0.00 | 0.00 | 0.00 | 48 | 1011.1 |
| 20260509140023 | 50 | 212 | 1.0 | 6.0 | 0.00 | 0.00 | 0.00 | 46 | 1011.0 |
| 20260509134520 | 49 | 133 | 1.0 | 5.0 | 0.00 | 0.00 | 0.00 | 48 | 1011.1 |
| 20260509133012 | 48 | 313 | 2.0 | 6.0 | 0.00 | 0.00 | 0.00 | 47 | 1011.2 |
| 20260509131512 | 48 | 177 | 0.0 | 6.0 | 0.00 | 0.00 | 0.00 | 48 | 1011.2 |
| 20260509130012 | 46 | 189 | 1.0 | 5.0 | 0.00 | 0.00 | 0.00 | 51 | 1011.3 |
| 20260509124502 | 45 | 165 | 0.0 | 5.0 | 0.00 | 0.00 | 0.00 | 52 | 1011.5 |
| 20260509123059 | 44 | 151 | 2.0 | 8.0 | 0.00 | 0.00 | 0.00 | 54 | 1011.6 |